Regional Weather Roundup
Issued by NWS

Home | Current Version | Previous Version | Text Only | Print | Product List | Glossary On
Versions: 1 2 3 4 5 6 7 8 9 10 11 12 13 14 15 16 17 18 19 20 21 22 23 24 25 26 27 28 29 30 31 32 33 34 35 36 37 38 39 40 41 42 43 44 45 46 47 48 49 50
000
ASUS44 KJAN 290010
RWRMS

MISSISSIPPI HOURLY WEATHER ROUNDUP
NATIONAL WEATHER SERVICE JACKSON MS
700 PM CDT FRI AUG 28 2015

NOTE: "FAIR: INDICATES FEW OR NO CLOUDS BELOW 12,000 FEET WITH NO
SIGNIFICANT WEATHER AND/OR OBSTRUCTIONS TO VISIBILITY.

MSZ001>002-007>008-010>013-018>021-025>028-034>036-290100-
NORTHWEST MISSISSIPPI

CITY           SKY/WX    TMP DP  RH WIND       PRES   REMARKS
CLARKSDALE     FAIR      84  68  58 E5        29.99S
CLEVELAND      MOCLDY    86  64  47 NW7       29.97S
GREENWOOD      CLEAR     81  66  60 CALM      29.97S
6HR MIN TEMP:  81; 6HR MAX TEMP:  91;

GREENVILLE       N/A    N/A N/A N/A MISG      29.97R
OLIVE BRANCH   PTCLDY    84  66  54 SE6       30.01S
OXFORD         FAIR      81  64  57 E3        30.02S
TUNICA         CLEAR     81  70  69 CALM      29.99F
$$

MSZ003>006-009-014>017-022>024-029>033-037>039-290100-
NORTHEAST MISSISSIPPI

CITY           SKY/WX    TMP DP  RH WIND       PRES   REMARKS
COLUMBUS AFB   CLEAR     85  66  54 E3        29.99R
6HR MIN TEMP:  85; 6HR MAX TEMP:  90;

CORINTH        FAIR      82  68  61 CALM      30.01R
GOLDN TRIANGLE CLEAR     88  64  45 NE6       29.99R
STARKVILLE     FAIR      79  68  69 CALM      29.99S
TUPELO         CLEAR     85  64  49 S3        30.00S
6HR MIN TEMP:  85; 6HR MAX TEMP:  89;

$$

MSZ040-058-290100-
CENTRAL MISSISSIPPI

CITY           SKY/WX    TMP DP  RH WIND       PRES   REMARKS
JACKSON INTL   PTCLDY    89  61  38 NE3       29.96S
6HR MIN TEMP:  89; 6HR MAX TEMP:  95;

JACKSON HAWKNS PTCLDY    89  59  36 NE3       29.97R
6HR MIN TEMP:  88; 6HR MAX TEMP:  93;

MERIDIAN KEY   CLEAR     87  63  44 CALM      29.97S
6HR MIN TEMP:  87; 6HR MAX TEMP:  91;

MERIDIAN NAS   CLEAR     84  67  56 CALM      29.98S
6HR MIN TEMP:  84; 6HR MAX TEMP:  91;

VICKSBURG      CLEAR     82  64  54 CALM      29.96S
6HR MIN TEMP:  82; 6HR MAX TEMP:  90;

$$

MSZ059>079-290100-
SOUTH MISSISSIPPI

CITY           SKY/WX    TMP DP  RH WIND       PRES   REMARKS
BROOKHAVEN     FAIR     N/A N/A N/A CALM      29.99S
HATTIESBURG    CLEAR     88  66  48 S3        29.96S HX  90
6HR MIN TEMP:  88; 6HR MAX TEMP:  93;

MCCOMB         PTCLDY    89  63  41 NE3       29.97R HX  90
6HR MIN TEMP:  87; 6HR MAX TEMP:  92;

NATCHEZ        CLEAR     86  61  42 CALM      29.98R
6HR MIN TEMP:  86; 6HR MAX TEMP:  90;

PINE BELT      CLEAR     88 N/A N/A SE6       29.98S
6HR MIN TEMP:  88; 6HR MAX TEMP:  91;

$$

MSZ080>082-290100-
COASTAL MISSISSIPPI

CITY           SKY/WX    TMP DP  RH WIND       PRES   REMARKS
BAY ST LOUIS   CLEAR     84  61  45 SE9       29.97S
BILOXI         CLEAR     82  66  58 S9        29.97R
6HR MIN TEMP:  82; 6HR MAX TEMP:  88;

PASCAGOULA     CLEAR     81  67  62 S3        29.97S
6HR MIN TEMP:  81; 6HR MAX TEMP:  89;

GULFPORT       CLEAR     83  66  56 SE10      29.97R
6HR MIN TEMP:  83; 6HR MAX TEMP:  88;

$$


USA.gov is the U.S. government's official web portal to all federal, state and local government web resources and services.